| time (UTC) | temp C | wind direction | speed KPH | gust KPH | rain 1hr cm | rain 24hr cm | rain mn cm | humidity % | barometer mb |
| 20260906130605 | 21 | 89 | 3.2 | 6.4 | 0.00 | 0.00 | 0.00 | 83 | 1019.9 |
| 20260906125559 | 20 | 80 | 1.6 | 4.8 | 0.00 | 0.00 | 0.00 | 88 | 1019.7 |
| 20260906125059 | 20 | 125 | 1.6 | 3.2 | 0.00 | 0.00 | 0.00 | 95 | 1019.6 |
| 20260906125037 | 19 | 356 | 1.6 | 3.2 | 0.00 | 0.00 | 0.00 | 96 | 1019.4 |
| 20260906124056 | 18 | 139 | 1.6 | 3.2 | 0.00 | 0.00 | 0.00 | 97 | 1019.5 |
| 20260906123556 | 18 | 193 | 1.6 | 3.2 | 0.00 | 0.00 | 0.00 | 97 | 1019.5 |
| 20260906123056 | 18 | 199 | 1.6 | 3.2 | 0.00 | 0.00 | 0.00 | 98 | 1019.4 |
| 20260906122556 | 18 | 257 | 0.0 | 3.2 | 0.00 | 0.00 | 0.00 | 98 | 1019.5 |
| 20260906122057 | 18 | 255 | 1.6 | 3.2 | 0.00 | 0.00 | 0.00 | 99 | 1019.4 |
| 20260906121557 | 17 | 270 | 1.6 | 3.2 | 0.00 | 0.00 | 0.00 | 99 | 1019.4 |
| 20260906121057 | 17 | 163 | 1.6 | 3.2 | 0.00 | 0.00 | 0.00 | 99 | 1019.4 |
| 20260906120818 | 17 | 356 | 0.0 | 3.2 | 0.00 | 0.00 | 0.00 | 99 | 1019.3 |
| 20260906120057 | 17 | 356 | 1.6 | 3.2 | 0.00 | 0.00 | 0.00 | 99 | 1019.2 |
| 20260906115542 | 17 | 187 | 1.6 | 3.2 | 0.00 | 0.00 | 0.00 | 99 | 1019.0 |
| 20260906115044 | 17 | 170 | 1.6 | 3.2 | 0.00 | 0.00 | 0.00 | 99 | 1019.1 |
| 20260906114543 | 17 | 257 | 1.6 | 3.2 | 0.00 | 0.00 | 0.00 | 99 | 1019.0 |
| 20260906114044 | 17 | 193 | 1.6 | 3.2 | 0.00 | 0.00 | 0.00 | 99 | 1019.1 |
| 20260906113543 | 17 | 177 | 1.6 | 3.2 | 0.00 | 0.00 | 0.00 | 98 | 1018.9 |
| 20260906113043 | 17 | 125 | 1.6 | 3.2 | 0.00 | 0.00 | 0.00 | 98 | 1018.8 |
| 20260906112544 | 17 | 265 | 1.6 | 3.2 | 0.00 | 0.00 | 0.00 | 98 | 1018.8 |
| 20260906112043 | 17 | 201 | 1.6 | 3.2 | 0.00 | 0.00 | 0.00 | 98 | 1018.7 |
| 20260906111543 | 17 | 356 | 0.0 | 1.6 | 0.00 | 0.00 | 0.00 | 98 | 1018.7 |
| 20260906111044 | 17 | 356 | 1.6 | 3.2 | 0.00 | 0.00 | 0.00 | 98 | 1018.7 |
| 20260906110804 | 18 | 356 | 1.6 | 3.2 | 0.00 | 0.00 | 0.00 | 97 | 1018.6 |
| 20260906110044 | 18 | 193 | 1.6 | 1.6 | 0.00 | 0.00 | 0.00 | 97 | 1018.6 |
| 20260906105546 | 18 | 314 | 1.6 | 3.2 | 0.00 | 0.00 | 0.00 | 97 | 1018.6 |
| 20260906105029 | 18 | 70 | 1.6 | 3.2 | 0.00 | 0.00 | 0.00 | 98 | 1018.5 |
| 20260906104753 | 18 | 125 | 1.6 | 3.2 | 0.00 | 0.00 | 0.00 | 98 | 1018.6 |
| 20260906104029 | 18 | 206 | 0.0 | 3.2 | 0.00 | 0.00 | 0.00 | 98 | 1018.6 |
| 20260906103528 | 18 | 320 | 1.6 | 4.8 | 0.00 | 0.00 | 0.00 | 98 | 1018.7 |
| 20260906103029 | 18 | 356 | 1.6 | 4.8 | 0.00 | 0.00 | 0.00 | 98 | 1018.7 |
| 20260906102529 | 18 | 323 | 1.6 | 3.2 | 0.00 | 0.00 | 0.00 | 98 | 1018.7 |
| 20260906102029 | 18 | 228 | 1.6 | 3.2 | 0.00 | 0.00 | 0.00 | 98 | 1018.6 |
| 20260906101530 | 18 | 179 | 1.6 | 3.2 | 0.00 | 0.00 | 0.00 | 98 | 1018.5 |
| 20260906101254 | 17 | 356 | 1.6 | 3.2 | 0.00 | 0.00 | 0.00 | 98 | 1018.5 |
| 20260906100734 | 17 | 224 | 1.6 | 6.4 | 0.00 | 0.00 | 0.00 | 98 | 1018.5 |
| 20260906100015 | 17 | 326 | 1.6 | 6.4 | 0.00 | 0.00 | 0.00 | 98 | 1018.5 |
| 20260906095515 | 17 | 320 | 3.2 | 8.0 | 0.00 | 0.00 | 0.00 | 98 | 1018.5 |
| 20260906095015 | 17 | 250 | 3.2 | 8.0 | 0.00 | 0.00 | 0.00 | 98 | 1018.6 |
| 20260906094513 | 17 | 203 | 1.6 | 6.4 | 0.00 | 0.00 | 0.00 | 98 | 1018.4 |
| 20260906094014 | 17 | 187 | 1.6 | 3.2 | 0.00 | 0.00 | 0.00 | 98 | 1018.4 |
| 20260906093514 | 17 | 0 | 1.6 | 3.2 | 0.00 | 0.00 | 0.00 | 98 | 1018.4 |
| 20260906093014 | 17 | 167 | 1.6 | 3.2 | 0.00 | 0.00 | 0.00 | 98 | 1018.2 |
| 20260906092514 | 17 | 356 | 0.0 | 3.2 | 0.00 | 0.00 | 0.00 | 97 | 1018.2 |
| 20260906092014 | 17 | 356 | 0.0 | 1.6 | 0.00 | 0.00 | 0.00 | 97 | 1018.2 |
| 20260906091737 | 17 | 199 | 0.0 | 3.2 | 0.00 | 0.00 | 0.00 | 97 | 1018.2 |
| 20260906091015 | 17 | 356 | 1.6 | 3.2 | 0.00 | 0.00 | 0.00 | 97 | 1018.2 |
| 20260906090514 | 17 | 141 | 3.2 | 3.2 | 0.00 | 0.00 | 0.00 | 97 | 1018.2 |
| 20260906090014 | 17 | 156 | 3.2 | 3.2 | 0.00 | 0.00 | 0.00 | 97 | 1018.3 |
| 20260906085515 | 18 | 180 | 1.6 | 3.2 | 0.00 | 0.00 | 0.00 | 96 | 1018.3 |
| 20260906085014 | 18 | 205 | 3.2 | 3.2 | 0.00 | 0.00 | 0.00 | 96 | 1018.4 |
| 20260906084501 | 18 | 185 | 1.6 | 3.2 | 0.00 | 0.00 | 0.00 | 96 | 1018.3 |
| 20260906084002 | 18 | 196 | 1.6 | 3.2 | 0.00 | 0.00 | 0.00 | 95 | 1018.3 |
| 20260906083719 | 18 | 210 | 1.6 | 3.2 | 0.00 | 0.00 | 0.00 | 95 | 1018.3 |
| 20260906083003 | 18 | 217 | 1.6 | 3.2 | 0.00 | 0.00 | 0.00 | 95 | 1018.2 |
| 20260906082501 | 18 | 89 | 1.6 | 3.2 | 0.00 | 0.00 | 0.00 | 95 | 1018.2 |
| 20260906082002 | 18 | 126 | 1.6 | 3.2 | 0.00 | 0.00 | 0.00 | 95 | 1018.1 |
| 20260906081501 | 18 | 2 | 1.6 | 3.2 | 0.00 | 0.00 | 0.00 | 95 | 1018.2 |
| 20260906081001 | 18 | 275 | 1.6 | 6.4 | 0.00 | 0.00 | 0.00 | 95 | 1018.2 |
| 20260906080450 | 18 | 208 | 3.2 | 6.4 | 0.00 | 0.00 | 0.00 | 95 | 1018.1 |
| 20260906075950 | 18 | 303 | 3.2 | 4.8 | 0.00 | 0.00 | 0.00 | 95 | 1018.2 |
| 20260906075710 | 18 | 312 | 1.6 | 4.8 | 0.00 | 0.00 | 0.00 | 95 | 1018.2 |
| 20260906074951 | 18 | 223 | 1.6 | 4.8 | 0.00 | 0.00 | 0.00 | 96 | 1018.2 |
| 20260906074716 | 18 | 356 | 1.6 | 4.8 | 0.00 | 0.00 | 0.00 | 96 | 1018.1 |
| 20260906073945 | 18 | 316 | 1.6 | 4.8 | 0.00 | 0.00 | 0.00 | 96 | 1018.0 |
| 20260906073440 | 18 | 220 | 1.6 | 4.8 | 0.00 | 0.00 | 0.00 | 96 | 1018.0 |
| 20260906072941 | 18 | 235 | 1.6 | 4.8 | 0.00 | 0.00 | 0.00 | 96 | 1018.0 |
| 20260906072441 | 18 | 296 | 1.6 | 4.8 | 0.00 | 0.00 | 0.00 | 96 | 1017.9 |
| 20260906071940 | 18 | 237 | 1.6 | 4.8 | 0.00 | 0.00 | 0.00 | 96 | 1017.9 |
| 20260906071443 | 18 | 189 | 1.6 | 3.2 | 0.00 | 0.00 | 0.00 | 96 | 1017.9 |
| 20260906070942 | 18 | 221 | 1.6 | 4.8 | 0.00 | 0.00 | 0.00 | 96 | 1017.9 |
| 20260906070704 | 18 | 203 | 1.6 | 4.8 | 0.00 | 0.00 | 0.00 | 96 | 1017.9 |
| 20260906065942 | 18 | 269 | 1.6 | 3.2 | 0.00 | 0.00 | 0.00 | 96 | 1017.9 |
| 20260906065444 | 18 | 181 | 1.6 | 3.2 | 0.00 | 0.00 | 0.00 | 96 | 1018.0 |
| 20260906064943 | 18 | 303 | 1.6 | 3.2 | 0.00 | 0.00 | 0.00 | 96 | 1018.1 |
| 20260906064442 | 18 | 181 | 1.6 | 4.8 | 0.00 | 0.00 | 0.00 | 96 | 1018.0 |
| 20260906063940 | 18 | 296 | 1.6 | 4.8 | 0.00 | 0.00 | 0.00 | 97 | 1018.1 |
| 20260906063656 | 18 | 337 | 1.6 | 6.4 | 0.00 | 0.00 | 0.00 | 97 | 1018.2 |
| 20260906063534 | 18 | 319 | 1.6 | 6.4 | 0.00 | 0.00 | 0.00 | 97 | 1018.1 |
| 20260906062438 | 18 | 227 | 1.6 | 4.8 | 0.00 | 0.00 | 0.00 | 97 | 1018.1 |
| 20260906061936 | 18 | 207 | 1.6 | 4.8 | 0.00 | 0.00 | 0.00 | 97 | 1018.1 |
| 20260906061438 | 18 | 265 | 1.6 | 4.8 | 0.00 | 0.00 | 0.00 | 97 | 1018.1 |
| 20260906060936 | 18 | 307 | 1.6 | 6.4 | 0.00 | 0.00 | 0.00 | 97 | 1018.0 |
| 20260906060436 | 18 | 265 | 3.2 | 6.4 | 0.00 | 0.00 | 0.00 | 97 | 1018.1 |
| 20260906055937 | 18 | 211 | 1.6 | 6.4 | 0.00 | 0.00 | 0.00 | 97 | 1018.0 |
| 20260906055437 | 18 | 294 | 3.2 | 6.4 | 0.00 | 0.00 | 0.00 | 97 | 1017.9 |
| 20260906055129 | 18 | 226 | 3.2 | 6.4 | 0.00 | 0.00 | 0.00 | 97 | 1017.9 |
| 20260906055025 | 18 | 197 | 1.6 | 6.4 | 0.00 | 0.00 | 0.00 | 97 | 1017.9 |
| 20260906053934 | 18 | 317 | 3.2 | 6.4 | 0.00 | 0.00 | 0.00 | 97 | 1018.0 |
| 20260906053435 | 18 | 293 | 1.6 | 8.0 | 0.00 | 0.00 | 0.00 | 97 | 1018.0 |
| 20260906053201 | 18 | 300 | 1.6 | 8.0 | 0.00 | 0.00 | 0.00 | 97 | 1018.0 |
| 20260906052435 | 18 | 230 | 1.6 | 6.4 | 0.00 | 0.00 | 0.00 | 97 | 1018.0 |
| 20260906051935 | 18 | 261 | 1.6 | 4.8 | 0.00 | 0.00 | 0.00 | 97 | 1017.9 |
| 20260906051435 | 18 | 248 | 1.6 | 4.8 | 0.00 | 0.00 | 0.00 | 96 | 1017.9 |
| 20260906050935 | 18 | 202 | 1.6 | 3.2 | 0.00 | 0.00 | 0.00 | 96 | 1017.8 |
| 20260906050438 | 18 | 210 | 1.6 | 3.2 | 0.00 | 0.00 | 0.00 | 96 | 1017.8 |
| 20260906045935 | 18 | 219 | 1.6 | 3.2 | 0.00 | 0.00 | 0.00 | 96 | 1017.8 |
| 20260906045435 | 18 | 356 | 1.6 | 3.2 | 0.00 | 0.00 | 0.00 | 95 | 1017.8 |
| 20260906044935 | 18 | 267 | 1.6 | 3.2 | 0.00 | 0.00 | 0.00 | 95 | 1017.8 |
| 20260906044436 | 18 | 297 | 1.6 | 3.2 | 0.00 | 0.00 | 0.00 | 95 | 1017.8 |
| 20260906043935 | 19 | 320 | 1.6 | 4.8 | 0.00 | 0.00 | 0.00 | 95 | 1017.8 |
| 20260906043432 | 19 | 304 | 1.6 | 4.8 | 0.00 | 0.00 | 0.00 | 95 | 1017.7 |
| 20260906042934 | 19 | 310 | 1.6 | 4.8 | 0.00 | 0.00 | 0.00 | 94 | 1017.6 |
| 20260906042432 | 19 | 316 | 1.6 | 4.8 | 0.00 | 0.00 | 0.00 | 94 | 1017.5 |
| 20260906041933 | 19 | 64 | 1.6 | 3.2 | 0.00 | 0.00 | 0.00 | 94 | 1017.5 |
| 20260906041429 | 19 | 314 | 1.6 | 4.8 | 0.00 | 0.00 | 0.00 | 94 | 1017.4 |
| 20260906040929 | 19 | 92 | 1.6 | 4.8 | 0.00 | 0.00 | 0.00 | 94 | 1017.4 |
| 20260906040429 | 19 | 18 | 1.6 | 4.8 | 0.00 | 0.00 | 0.00 | 94 | 1017.3 |
| 20260906035929 | 19 | 69 | 3.2 | 6.4 | 0.00 | 0.00 | 0.00 | 93 | 1017.4 |
| 20260906035918 | 19 | 54 | 3.2 | 6.4 | 0.00 | 0.00 | 0.00 | 93 | 1017.5 |
| 20260906034930 | 19 | 349 | 1.6 | 6.4 | 0.00 | 0.00 | 0.00 | 93 | 1017.6 |
| 20260906034427 | 19 | 178 | 1.6 | 6.4 | 0.00 | 0.00 | 0.00 | 92 | 1017.6 |
| 20260906033926 | 19 | 313 | 1.6 | 3.2 | 0.00 | 0.00 | 0.00 | 92 | 1017.5 |
| 20260906033425 | 19 | 85 | 1.6 | 6.4 | 0.00 | 0.00 | 0.00 | 92 | 1017.6 |
| 20260906032922 | 19 | 43 | 1.6 | 6.4 | 0.00 | 0.00 | 0.00 | 91 | 1017.5 |
| 20260906032423 | 19 | 239 | 1.6 | 6.4 | 0.00 | 0.00 | 0.00 | 91 | 1017.5 |
| 20260906032143 | 19 | 102 | 3.2 | 6.4 | 0.00 | 0.00 | 0.00 | 90 | 1017.4 |
| 20260906031422 | 20 | 55 | 1.6 | 6.4 | 0.00 | 0.00 | 0.00 | 89 | 1017.5 |
| 20260906030921 | 20 | 30 | 1.6 | 6.4 | 0.00 | 0.00 | 0.00 | 89 | 1017.5 |
| 20260906030422 | 20 | 299 | 3.2 | 6.4 | 0.00 | 0.00 | 0.00 | 88 | 1017.5 |
| 20260906025921 | 20 | 349 | 3.2 | 6.4 | 0.00 | 0.00 | 0.00 | 87 | 1017.5 |
| 20260906025421 | 20 | 21 | 3.2 | 8.0 | 0.00 | 0.00 | 0.00 | 87 | 1017.5 |
| 20260906024920 | 20 | 337 | 3.2 | 9.7 | 0.00 | 0.00 | 0.00 | 86 | 1017.5 |
| 20260906024422 | 20 | 100 | 3.2 | 9.7 | 0.00 | 0.00 | 0.00 | 85 | 1017.3 |
| 20260906023922 | 20 | 63 | 4.8 | 11.3 | 0.00 | 0.00 | 0.00 | 85 | 1017.3 |
| 20260906023420 | 20 | 64 | 6.4 | 12.9 | 0.00 | 0.00 | 0.00 | 85 | 1017.3 |
| 20260906022921 | 20 | 50 | 8.0 | 12.9 | 0.00 | 0.00 | 0.00 | 86 | 1017.2 |
| 20260906022421 | 20 | 49 | 6.4 | 12.9 | 0.00 | 0.00 | 0.00 | 85 | 1017.2 |
| 20260906021920 | 20 | 61 | 8.0 | 12.9 | 0.00 | 0.00 | 0.00 | 85 | 1017.2 |
| 20260906021420 | 20 | 45 | 6.4 | 12.9 | 0.00 | 0.00 | 0.00 | 85 | 1017.2 |
| 20260906020920 | 20 | 64 | 6.4 | 12.9 | 0.00 | 0.00 | 0.00 | 85 | 1017.2 |
| 20260906020421 | 20 | 53 | 6.4 | 12.9 | 0.00 | 0.00 | 0.00 | 86 | 1017.2 |
| 20260906015920 | 20 | 55 | 4.8 | 12.9 | 0.00 | 0.00 | 0.00 | 86 | 1017.2 |
| 20260906015421 | 20 | 34 | 6.4 | 12.9 | 0.00 | 0.00 | 0.00 | 86 | 1017.2 |
| 20260906014922 | 20 | 23 | 4.8 | 12.9 | 0.00 | 0.00 | 0.00 | 86 | 1017.2 |
| 20260906014421 | 20 | 62 | 3.2 | 8.0 | 0.00 | 0.00 | 0.00 | 88 | 1017.2 |
| 20260906013916 | 21 | 343 | 3.2 | 8.0 | 0.00 | 0.00 | 0.00 | 88 | 1017.3 |
| 20260906013417 | 21 | 322 | 3.2 | 11.3 | 0.00 | 0.00 | 0.00 | 88 | 1017.3 |
| 20260906012916 | 21 | 61 | 3.2 | 11.3 | 0.00 | 0.00 | 0.00 | 88 | 1017.2 |
| 20260906012417 | 21 | 44 | 3.2 | 6.4 | 0.00 | 0.00 | 0.00 | 88 | 1017.2 |
| 20260906011917 | 21 | 32 | 3.2 | 11.3 | 0.00 | 0.00 | 0.00 | 88 | 1017.2 |
| 20260906011414 | 21 | 143 | 3.2 | 12.9 | 0.00 | 0.00 | 0.00 | 88 | 1017.2 |
| 20260906010916 | 21 | 356 | 3.2 | 12.9 | 0.00 | 0.00 | 0.00 | 87 | 1017.3 |
| 20260906010414 | 21 | 87 | 3.2 | 9.7 | 0.00 | 0.00 | 0.00 | 88 | 1017.3 |
| 20260906005917 | 21 | 53 | 3.2 | 12.9 | 0.00 | 0.00 | 0.00 | 88 | 1017.3 |
| 20260906005414 | 21 | 82 | 4.8 | 12.9 | 0.00 | 0.00 | 0.00 | 88 | 1017.2 |
| 20260906004915 | 21 | 151 | 3.2 | 12.9 | 0.00 | 0.00 | 0.00 | 88 | 1017.2 |
| 20260906004413 | 21 | 175 | 1.6 | 6.4 | 0.00 | 0.00 | 0.00 | 88 | 1017.1 |
| 20260906003912 | 21 | 39 | 3.2 | 8.0 | 0.00 | 0.00 | 0.00 | 88 | 1017.1 |
| 20260906003410 | 21 | 72 | 4.8 | 14.5 | 0.00 | 0.00 | 0.00 | 88 | 1017.1 |
| 20260906002911 | 21 | 57 | 4.8 | 14.5 | 0.00 | 0.00 | 0.00 | 88 | 1017.0 |
| 20260906002411 | 21 | 60 | 4.8 | 14.5 | 0.00 | 0.00 | 0.00 | 88 | 1017.0 |
| 20260906001910 | 21 | 49 | 6.4 | 14.5 | 0.00 | 0.00 | 0.00 | 87 | 1017.1 |
| 20260906001410 | 21 | 53 | 6.4 | 14.5 | 0.00 | 0.00 | 0.00 | 87 | 1017.2 |
| 20260906000911 | 21 | 53 | 8.0 | 14.5 | 0.00 | 0.00 | 0.00 | 87 | 1017.1 |
| 20260906000411 | 21 | 42 | 6.4 | 14.5 | 0.00 | 0.00 | 0.00 | 86 | 1017.1 |
| 20260905235911 | 21 | 74 | 4.8 | 14.5 | 0.00 | 0.00 | 0.00 | 86 | 1017.1 |
| 20260905235411 | 21 | 62 | 4.8 | 11.3 | 0.00 | 0.00 | 0.00 | 86 | 1017.1 |
| 20260905235139 | 21 | 12 | 6.4 | 12.9 | 0.00 | 0.00 | 0.00 | 87 | 1017.2 |
| 20260905234407 | 21 | 32 | 6.4 | 12.9 | 0.00 | 0.00 | 0.00 | 87 | 1017.1 |
| 20260905233906 | 21 | 18 | 4.8 | 14.5 | 0.00 | 0.00 | 0.00 | 87 | 1017.1 |
| 20260905233405 | 21 | 69 | 6.4 | 14.5 | 0.00 | 0.00 | 0.00 | 88 | 1017.2 |
| 20260905232905 | 21 | 71 | 6.4 | 14.5 | 0.00 | 0.00 | 0.00 | 88 | 1017.2 |
| 20260905232405 | 21 | 59 | 4.8 | 14.5 | 0.00 | 0.00 | 0.00 | 88 | 1017.2 |
| 20260905232130 | 21 | 109 | 4.8 | 9.7 | 0.00 | 0.00 | 0.00 | 88 | 1017.2 |
| 20260905231408 | 21 | 52 | 4.8 | 11.3 | 0.00 | 0.00 | 0.00 | 89 | 1017.2 |
| 20260905230905 | 21 | 97 | 4.8 | 12.9 | 0.00 | 0.00 | 0.00 | 88 | 1017.1 |
| 20260905230406 | 21 | 53 | 6.4 | 12.9 | 0.00 | 0.00 | 0.00 | 89 | 1017.1 |
| 20260905225906 | 21 | 53 | 6.4 | 12.9 | 0.00 | 0.00 | 0.00 | 89 | 1017.1 |
| 20260905225406 | 21 | 43 | 6.4 | 17.7 | 0.00 | 0.00 | 0.00 | 90 | 1017.1 |
| 20260905224905 | 21 | 60 | 8.0 | 17.7 | 0.00 | 0.00 | 0.00 | 89 | 1017.1 |
| 20260905224402 | 22 | 106 | 6.4 | 17.7 | 0.00 | 0.00 | 0.00 | 88 | 1017.2 |
| 20260905223900 | 22 | 352 | 6.4 | 12.9 | 0.00 | 0.00 | 0.00 | 87 | 1017.2 |
| 20260905223400 | 22 | 69 | 8.0 | 14.5 | 0.00 | 0.00 | 0.00 | 87 | 1017.1 |
| 20260905223125 | 22 | 50 | 6.4 | 14.5 | 0.00 | 0.00 | 0.00 | 86 | 1017.0 |
| 20260905222621 | 22 | 41 | 6.4 | 14.5 | 0.00 | 0.00 | 0.00 | 86 | 1017.0 |
| 20260905221900 | 22 | 75 | 8.0 | 14.5 | 0.00 | 0.00 | 0.00 | 87 | 1016.9 |
| 20260905221401 | 22 | 91 | 8.0 | 14.5 | 0.00 | 0.00 | 0.00 | 86 | 1016.8 |
| 20260905220900 | 22 | 47 | 9.7 | 14.5 | 0.00 | 0.00 | 0.00 | 86 | 1016.7 |
| 20260905220400 | 22 | 48 | 8.0 | 14.5 | 0.00 | 0.00 | 0.00 | 86 | 1016.6 |
| 20260905220124 | 22 | 76 | 6.4 | 17.7 | 0.00 | 0.00 | 0.00 | 84 | 1016.7 |
| 20260905215400 | 22 | 306 | 6.4 | 17.7 | 0.00 | 0.00 | 0.00 | 85 | 1016.6 |
| 20260905214901 | 22 | 53 | 8.0 | 17.7 | 0.00 | 0.00 | 0.00 | 86 | 1016.6 |
| 20260905214357 | 22 | 304 | 8.0 | 17.7 | 0.00 | 0.00 | 0.00 | 86 | 1016.5 |
| 20260905213855 | 22 | 71 | 8.0 | 16.1 | 0.00 | 0.00 | 0.00 | 86 | 1016.5 |
| 20260905213355 | 22 | 125 | 8.0 | 14.5 | 0.00 | 0.00 | 0.00 | 86 | 1016.5 |
| 20260905212855 | 22 | 358 | 6.4 | 14.5 | 0.00 | 0.00 | 0.00 | 86 | 1016.5 |
| 20260905212357 | 23 | 58 | 6.4 | 14.5 | 0.00 | 0.00 | 0.00 | 84 | 1016.4 |
| 20260905211855 | 23 | 50 | 6.4 | 14.5 | 0.00 | 0.00 | 0.00 | 85 | 1016.5 |
| 20260905211355 | 23 | 57 | 6.4 | 14.5 | 0.00 | 0.00 | 0.00 | 84 | 1016.5 |
| 20260905210855 | 23 | 0 | 8.0 | 17.7 | 0.00 | 0.00 | 0.00 | 84 | 1016.4 |
| 20260905210355 | 23 | 24 | 8.0 | 17.7 | 0.00 | 0.00 | 0.00 | 84 | 1016.3 |
| 20260905205855 | 23 | 66 | 8.0 | 17.7 | 0.00 | 0.00 | 0.00 | 83 | 1016.3 |
| 20260905205356 | 23 | 24 | 8.0 | 17.7 | 0.00 | 0.00 | 0.00 | 83 | 1016.4 |
| 20260905204852 | 24 | 39 | 8.0 | 17.7 | 0.00 | 0.00 | 0.00 | 81 | 1016.4 |
| 20260905204351 | 24 | 335 | 6.4 | 17.7 | 0.00 | 0.00 | 0.00 | 81 | 1016.4 |
| 20260905204110 | 25 | 52 | 6.4 | 14.5 | 0.00 | 0.00 | 0.00 | 79 | 1016.4 |
| 20260905203352 | 25 | 51 | 6.4 | 14.5 | 0.00 | 0.00 | 0.00 | 78 | 1016.3 |
| 20260905203112 | 25 | 58 | 6.4 | 14.5 | 0.00 | 0.00 | 0.00 | 78 | 1016.2 |
| 20260905202352 | 25 | 110 | 6.4 | 12.9 | 0.00 | 0.00 | 0.00 | 79 | 1016.2 |
| 20260905201852 | 25 | 45 | 6.4 | 12.9 | 0.00 | 0.00 | 0.00 | 79 | 1016.3 |
| 20260905201352 | 25 | 41 | 6.4 | 12.9 | 0.00 | 0.00 | 0.00 | 79 | 1016.3 |
| 20260905200852 | 24 | 272 | 6.4 | 12.9 | 0.00 | 0.00 | 0.00 | 81 | 1016.3 |
| 20260905200353 | 24 | 54 | 6.4 | 12.9 | 0.00 | 0.00 | 0.00 | 82 | 1016.2 |
| 20260905195851 | 25 | 30 | 6.4 | 12.9 | 0.00 | 0.00 | 0.00 | 81 | 1016.3 |
| 20260905195352 | 25 | 4 | 6.4 | 14.5 | 0.00 | 0.00 | 0.00 | 81 | 1016.3 |
| 20260905194852 | 25 | 20 | 4.8 | 14.5 | 0.00 | 0.00 | 0.00 | 80 | 1016.3 |
| 20260905194353 | 25 | 277 | 4.8 | 12.9 | 0.00 | 0.00 | 0.00 | 80 | 1016.4 |
| 20260905193853 | 25 | 23 | 4.8 | 14.5 | 0.00 | 0.00 | 0.00 | 81 | 1016.4 |
| 20260905193350 | 24 | 336 | 4.8 | 14.5 | 0.00 | 0.00 | 0.00 | 82 | 1016.3 |
| 20260905192850 | 24 | 99 | 8.0 | 17.7 | 0.00 | 0.00 | 0.00 | 82 | 1016.3 |
| 20260905192351 | 24 | 45 | 9.7 | 17.7 | 0.00 | 0.00 | 0.00 | 83 | 1016.3 |
| 20260905192119 | 24 | 60 | 9.7 | 17.7 | 0.00 | 0.00 | 0.00 | 82 | 1016.3 |
| 20260905191351 | 24 | 74 | 9.7 | 17.7 | 0.00 | 0.00 | 0.00 | 82 | 1016.3 |
| 20260905191339 | 25 | 90 | 9.7 | 17.7 | 0.00 | 0.00 | 0.00 | 82 | 1016.3 |
| 20260905190352 | 25 | 53 | 9.7 | 17.7 | 0.00 | 0.00 | 0.00 | 83 | 1016.3 |
| 20260905185852 | 24 | 67 | 9.7 | 17.7 | 0.00 | 0.00 | 0.00 | 84 | 1016.3 |
| 20260905185351 | 25 | 55 | 9.7 | 17.7 | 0.00 | 0.00 | 0.00 | 84 | 1016.3 |
| 20260905184847 | 25 | 52 | 8.0 | 17.7 | 0.00 | 0.00 | 0.00 | 83 | 1016.2 |
| 20260905184349 | 25 | 59 | 6.4 | 12.9 | 0.00 | 0.00 | 0.00 | 81 | 1016.2 |
| 20260905183847 | 26 | 340 | 4.8 | 11.3 | 0.00 | 0.00 | 0.00 | 78 | 1016.2 |
| 20260905183605 | 26 | 317 | 3.2 | 11.3 | 0.00 | 0.00 | 0.00 | 78 | 1016.2 |
| 20260905182842 | 25 | 330 | 6.4 | 12.9 | 0.00 | 0.00 | 0.00 | 79 | 1016.2 |
| 20260905182343 | 26 | 322 | 6.4 | 12.9 | 0.00 | 0.00 | 0.00 | 79 | 1016.2 |
| 20260905181843 | 26 | 324 | 4.8 | 12.9 | 0.00 | 0.00 | 0.00 | 78 | 1016.2 |
| 20260905181342 | 26 | 357 | 4.8 | 14.5 | 0.00 | 0.00 | 0.00 | 78 | 1016.2 |
| 20260905180841 | 26 | 334 | 6.4 | 14.5 | 0.00 | 0.00 | 0.00 | 78 | 1016.2 |
| 20260905180342 | 25 | 16 | 4.8 | 11.3 | 0.00 | 0.00 | 0.00 | 78 | 1016.2 |
| 20260905175842 | 25 | 74 | 3.2 | 9.7 | 0.00 | 0.00 | 0.00 | 78 | 1016.3 |
| 20260905175343 | 25 | 23 | 4.8 | 14.5 | 0.00 | 0.00 | 0.00 | 79 | 1016.2 |
| 20260905174843 | 25 | 319 | 6.4 | 14.5 | 0.00 | 0.00 | 0.00 | 79 | 1016.1 |
| 20260905174343 | 25 | 284 | 6.4 | 16.1 | 0.00 | 0.00 | 0.00 | 79 | 1016.1 |
| 20260905173841 | 25 | 298 | 6.4 | 16.1 | 0.00 | 0.00 | 0.00 | 79 | 1016.2 |
| 20260905173604 | 25 | 25 | 6.4 | 11.3 | 0.00 | 0.00 | 0.00 | 78 | 1016.3 |
| 20260905172841 | 25 | 76 | 6.4 | 14.5 | 0.00 | 0.00 | 0.00 | 78 | 1016.3 |
| 20260905172829 | 26 | 45 | 4.8 | 14.5 | 0.00 | 0.00 | 0.00 | 78 | 1016.3 |
| 20260905171841 | 26 | 63 | 6.4 | 14.5 | 0.00 | 0.00 | 0.00 | 78 | 1016.2 |
| 20260905171341 | 26 | 23 | 4.8 | 14.5 | 0.00 | 0.00 | 0.00 | 78 | 1016.2 |
| 20260905170842 | 25 | 58 | 4.8 | 11.3 | 0.00 | 0.00 | 0.00 | 78 | 1016.2 |
| 20260905170342 | 25 | 356 | 4.8 | 11.3 | 0.00 | 0.00 | 0.00 | 78 | 1016.3 |
| 20260905165841 | 25 | 330 | 4.8 | 12.9 | 0.00 | 0.00 | 0.00 | 79 | 1016.3 |
| 20260905165601 | 25 | 25 | 4.8 | 14.5 | 0.00 | 0.00 | 0.00 | 80 | 1016.3 |
| 20260905164842 | 25 | 294 | 4.8 | 14.5 | 0.00 | 0.00 | 0.00 | 79 | 1016.3 |
| 20260905164338 | 25 | 298 | 4.8 | 9.7 | 0.00 | 0.00 | 0.00 | 78 | 1016.4 |
| 20260905163838 | 25 | 31 | 4.8 | 11.3 | 0.00 | 0.00 | 0.00 | 81 | 1016.4 |
| 20260905163337 | 25 | 64 | 4.8 | 11.3 | 0.00 | 0.00 | 0.00 | 81 | 1016.3 |
| 20260905163057 | 25 | 25 | 4.8 | 9.7 | 0.00 | 0.00 | 0.00 | 82 | 1016.3 |
| 20260905162336 | 25 | 50 | 3.2 | 9.7 | 0.00 | 0.00 | 0.00 | 82 | 1016.3 |
| 20260905162054 | 25 | 10 | 4.8 | 11.3 | 0.00 | 0.00 | 0.00 | 82 | 1016.4 |
| 20260905161336 | 24 | 45 | 6.4 | 11.3 | 0.00 | 0.00 | 0.00 | 83 | 1016.4 |
| 20260905160836 | 24 | 69 | 4.8 | 11.3 | 0.00 | 0.00 | 0.00 | 83 | 1016.4 |
| 20260905160336 | 24 | 25 | 3.2 | 9.7 | 0.00 | 0.00 | 0.00 | 83 | 1016.4 |
| 20260905155836 | 24 | 356 | 3.2 | 8.0 | 0.00 | 0.00 | 0.00 | 84 | 1016.4 |
| 20260905155604 | 24 | 70 | 3.2 | 9.7 | 0.00 | 0.00 | 0.00 | 85 | 1016.4 |
| 20260905155101 | 24 | 44 | 4.8 | 9.7 | 0.00 | 0.00 | 0.00 | 85 | 1016.3 |
| 20260905154337 | 23 | 37 | 4.8 | 9.7 | 0.00 | 0.00 | 0.00 | 85 | 1016.3 |
| 20260905153834 | 23 | 349 | 4.8 | 9.7 | 0.00 | 0.00 | 0.00 | 86 | 1016.4 |
| 20260905153332 | 23 | 337 | 4.8 | 9.7 | 0.00 | 0.00 | 0.00 | 86 | 1016.4 |
| 20260905153317 | 23 | 81 | 3.2 | 9.7 | 0.00 | 0.00 | 0.00 | 87 | 1016.4 |
| 20260905152332 | 23 | 52 | 3.2 | 9.7 | 0.00 | 0.00 | 0.00 | 87 | 1016.4 |
| 20260905151832 | 23 | 188 | 4.8 | 12.9 | 0.00 | 0.00 | 0.00 | 88 | 1016.3 |
| 20260905151334 | 23 | 0 | 6.4 | 14.5 | 0.00 | 0.00 | 0.00 | 88 | 1016.3 |
| 20260905150831 | 23 | 64 | 6.4 | 14.5 | 0.00 | 0.00 | 0.00 | 89 | 1016.2 |
| 20260905150331 | 23 | 33 | 6.4 | 14.5 | 0.00 | 0.00 | 0.00 | 87 | 1016.3 |
| 20260905145831 | 23 | 65 | 6.4 | 12.9 | 0.00 | 0.00 | 0.00 | 88 | 1016.1 |
| 20260905145556 | 23 | 306 | 4.8 | 11.3 | 0.00 | 0.00 | 0.00 | 87 | 1016.1 |
| 20260905144831 | 23 | 350 | 6.4 | 12.9 | 0.00 | 0.00 | 0.00 | 87 | 1015.9 |
| 20260905144821 | 23 | 140 | 6.4 | 17.7 | 0.00 | 0.00 | 0.00 | 86 | 1015.9 |
| 20260905143834 | 23 | 288 | 6.4 | 17.7 | 0.00 | 0.00 | 0.00 | 87 | 1015.8 |
| 20260905143553 | 23 | 352 | 4.8 | 12.9 | 0.00 | 0.00 | 0.00 | 87 | 1015.6 |
| 20260905142829 | 23 | 288 | 4.8 | 12.9 | 0.00 | 0.00 | 0.00 | 88 | 1015.5 |
| 20260905142551 | 23 | 47 | 6.4 | 14.5 | 0.00 | 0.00 | 0.00 | 90 | 1015.5 |
| 20260905141823 | 22 | 72 | 6.4 | 14.5 | 0.00 | 0.00 | 0.00 | 91 | 1015.5 |
| 20260905141322 | 22 | 61 | 6.4 | 11.3 | 0.00 | 0.00 | 0.00 | 92 | 1015.5 |
| 20260905140823 | 22 | 85 | 3.2 | 9.7 | 0.00 | 0.00 | 0.00 | 93 | 1015.5 |
| 20260905140320 | 22 | 40 | 4.8 | 12.9 | 0.00 | 0.00 | 0.00 | 93 | 1015.5 |
| 20260905135811 | 22 | 37 | 6.4 | 12.9 | 0.00 | 0.00 | 0.00 | 94 | 1015.5 |
| 20260905135311 | 22 | 55 | 6.4 | 12.9 | 0.00 | 0.00 | 0.00 | 94 | 1015.2 |
| 20260905134814 | 22 | 61 | 8.0 | 14.5 | 0.00 | 0.00 | 0.00 | 94 | 1015.4 |
| 20260905134312 | 22 | 101 | 6.4 | 14.5 | 0.00 | 0.00 | 0.00 | 94 | 1015.4 |
| 20260905134036 | 22 | 71 | 4.8 | 12.9 | 0.00 | 0.00 | 0.00 | 95 | 1015.4 |
| 20260905133305 | 22 | 48 | 6.4 | 12.9 | 0.00 | 0.00 | 0.00 | 95 | 1015.4 |
| 20260905132808 | 22 | 67 | 6.4 | 12.9 | 0.00 | 0.00 | 0.00 | 95 | 1015.5 |
| 20260905132307 | 22 | 68 | 4.8 | 12.9 | 0.00 | 0.00 | 0.00 | 95 | 1015.4 |
| 20260905131810 | 22 | 14 | 4.8 | 9.7 | 0.00 | 0.00 | 0.00 | 95 | 1015.7 |
| 20260905131308 | 22 | 312 | 4.8 | 12.9 | 0.00 | 0.00 | 0.00 | 95 | 1015.6 |